Previsão horária em Cepra

Hoje, 29 Julho, Quinta-feira

Tempo Temperatura Precipitação Vento Pressão Humidade
00:00 +22°C° 0 mm 1 m/s 742 mmHg 72%
01:00 +21°C° 0 mm 1 m/s 742 mmHg 73%
02:00 +21°C° 0 mm 1 m/s 742 mmHg 74%
03:00 +21°C° 0 mm 1 m/s 742 mmHg 77%
04:00 +20°C° 0 mm 1 m/s 741 mmHg 79%
05:00 +20°C° 0 mm 1 m/s 741 mmHg 82%
06:00 +22°C° 0 mm 1 m/s 741 mmHg 77%
07:00 +23°C° 0 mm 1 m/s 741 mmHg 72%
08:00 +25°C° 0 mm 1 m/s 741 mmHg 69%
09:00 +24°C° 0.3 mm 1 m/s 741 mmHg 75%
10:00 +23°C° 0.3 mm 1 m/s 741 mmHg 81%
11:00 +23°C° 0.3 mm 2 m/s 741 mmHg 87%
12:00 +24°C° 0.3 mm 3 m/s 741 mmHg 81%
13:00 +25°C° 0.3 mm 3 m/s 741 mmHg 76%
14:00 +26°C° 0.3 mm 4 m/s 741 mmHg 70%
15:00 +26°C° 0.1 mm 4 m/s 741 mmHg 71%
16:00 +26°C° 0.1 mm 5 m/s 741 mmHg 72%
17:00 +25°C° 0.1 mm 5 m/s 741 mmHg 73%
18:00 +23°C° 0 mm 4 m/s 741 mmHg 76%
19:00 +22°C° 0 mm 3 m/s 741 mmHg 79%
20:00 +21°C° 0 mm 2 m/s 741 mmHg 82%
21:00 +20°C° 0 mm 2 m/s 741 mmHg 83%
22:00 +19°C° 0 mm 2 m/s 742 mmHg 85%
23:00 +19°C° 0 mm 2 m/s 742 mmHg 86%

Amanhã, 30 Julho, Sexta-feira

Tempo Temperatura Precipitação Vento Pressão Humidade
00:00 +19°C° 0 mm 2 m/s 742 mmHg 85%
01:00 +19°C° 0 mm 2 m/s 742 mmHg 84%
02:00 +19°C° 0 mm 3 m/s 742 mmHg 82%
03:00 +18°C° 0 mm 3 m/s 742 mmHg 84%
04:00 +18°C° 0 mm 3 m/s 742 mmHg 85%
05:00 +17°C° 0 mm 2 m/s 742 mmHg 86%
06:00 +18°C° 0 mm 3 m/s 742 mmHg 79%
07:00 +20°C° 0 mm 4 m/s 742 mmHg 72%
08:00 +21°C° 0 mm 5 m/s 742 mmHg 65%
09:00 +22°C° 0 mm 5 m/s 742 mmHg 60%
10:00 +23°C° 0 mm 5 m/s 742 mmHg 54%
11:00 +24°C° 0 mm 6 m/s 742 mmHg 48%
12:00 +25°C° 0 mm 5 m/s 742 mmHg 49%
13:00 +26°C° 0 mm 5 m/s 742 mmHg 49%
14:00 +26°C° 0 mm 5 m/s 742 mmHg 49%
15:00 +26°C° 0 mm 5 m/s 741 mmHg 51%
16:00 +25°C° 0 mm 4 m/s 741 mmHg 53%
17:00 +25°C° 0 mm 3 m/s 741 mmHg 55%
18:00 +24°C° 0 mm 3 m/s 741 mmHg 59%
19:00 +23°C° 0 mm 2 m/s 741 mmHg 63%
20:00 +21°C° 0 mm 2 m/s 740 mmHg 67%
21:00 +20°C° 0 mm 2 m/s 740 mmHg 70%
22:00 +19°C° 0 mm 2 m/s 740 mmHg 72%
23:00 +18°C° 0 mm 2 m/s 741 mmHg 75%

Depois de amanhã, 31 Julho, Sábado

Tempo Temperatura Precipitação Vento Pressão Humidade
00:00 +17°C° 0 mm 2 m/s 741 mmHg 77%
01:00 +17°C° 0 mm 2 m/s 741 mmHg 79%
02:00 +17°C° 0 mm 3 m/s 741 mmHg 80%
03:00 +16°C° 0 mm 3 m/s 741 mmHg 81%
04:00 +16°C° 0 mm 3 m/s 741 mmHg 81%
05:00 +16°C° 0 mm 3 m/s 741 mmHg 82%
06:00 +18°C° 0 mm 3 m/s 741 mmHg 76%
07:00 +19°C° 0 mm 3 m/s 741 mmHg 70%
08:00 +21°C° 0 mm 3 m/s 741 mmHg 64%
09:00 +24°C° 0 mm 3 m/s 741 mmHg 59%
10:00 +25°C° 0 mm 4 m/s 741 mmHg 53%
11:00 +27°C° 0 mm 4 m/s 741 mmHg 48%
12:00 +27°C° 0 mm 4 m/s 741 mmHg 46%
13:00 +28°C° 0 mm 4 m/s 741 mmHg 44%
14:00 +29°C° 0 mm 4 m/s 741 mmHg 42%
15:00 +29°C° 0 mm 3 m/s 741 mmHg 44%
16:00 +29°C° 0 mm 2 m/s 740 mmHg 45%
17:00 +29°C° 0 mm 2 m/s 740 mmHg 47%
18:00 +27°C° 0.1 mm 2 m/s 740 mmHg 53%
19:00 +25°C° 0.1 mm 2 m/s 739 mmHg 60%
20:00 +23°C° 0.1 mm 2 m/s 739 mmHg 67%
21:00 +21°C° 4.9 mm 2 m/s 739 mmHg 77%
22:00 +20°C° 4.9 mm 2 m/s 739 mmHg 88%
23:00 +20°C° 4.9 mm 1 m/s 740 mmHg 98%

1 Agosto, Domingo

Tempo Temperatura Precipitação Vento Pressão Humidade
00:00 +20°C° 0.7 mm 1 m/s 739 mmHg 98%
01:00 +19°C° 0.7 mm 2 m/s 739 mmHg 98%
02:00 +19°C° 0.7 mm 2 m/s 739 mmHg 97%
03:00 +18°C° 0 mm 2 m/s 740 mmHg 97%
04:00 +18°C° 0 mm 3 m/s 740 mmHg 97%
05:00 +18°C° 0 mm 3 m/s 740 mmHg 97%
06:00 +19°C° 0 mm 3 m/s 740 mmHg 92%
07:00 +19°C° 0 mm 4 m/s 741 mmHg 88%
08:00 +20°C° 0 mm 4 m/s 741 mmHg 83%
09:00 +22°C° 0 mm 4 m/s 741 mmHg 73%
10:00 +23°C° 0 mm 4 m/s 741 mmHg 62%
11:00 +25°C° 0 mm 4 m/s 742 mmHg 52%
12:00 +26°C° 0 mm 4 m/s 742 mmHg 50%
13:00 +26°C° 0 mm 4 m/s 742 mmHg 48%
14:00 +26°C° 0 mm 4 m/s 742 mmHg 47%
15:00 +26°C° 0 mm 4 m/s 741 mmHg 50%
16:00 +26°C° 0 mm 4 m/s 741 mmHg 54%
17:00 +26°C° 0 mm 3 m/s 741 mmHg 58%
18:00 +24°C° 0 mm 2 m/s 741 mmHg 63%
19:00 +23°C° 0 mm 2 m/s 741 mmHg 68%
20:00 +21°C° 0 mm 1 m/s 741 mmHg 73%
21:00 +21°C° 0 mm 1 m/s 741 mmHg 75%
22:00 +20°C° 0 mm 1 m/s 740 mmHg 77%
23:00 +19°C° 0 mm 1 m/s 740 mmHg 79%

2 Agosto, Segunda-feira

Tempo Temperatura Precipitação Vento Pressão Humidade
00:00 +18°C° 0.9 mm 2 m/s 740 mmHg 84%
01:00 +18°C° 0.9 mm 2 m/s 740 mmHg 89%
02:00 +17°C° 0.9 mm 3 m/s 739 mmHg 94%
03:00 +17°C° 1.7 mm 3 m/s 739 mmHg 95%
04:00 +17°C° 1.7 mm 3 m/s 738 mmHg 97%
05:00 +17°C° 1.7 mm 3 m/s 738 mmHg 98%
06:00 +18°C° 0.1 mm 3 m/s 737 mmHg 96%
07:00 +19°C° 0.1 mm 3 m/s 737 mmHg 95%
08:00 +19°C° 0.1 mm 3 m/s 737 mmHg 93%
09:00 +20°C° 0 mm 3 m/s 737 mmHg 89%
10:00 +21°C° 0 mm 4 m/s 737 mmHg 85%
11:00 +22°C° 0 mm 4 m/s 737 mmHg 81%
12:00 +21°C° 0.5 mm 4 m/s 737 mmHg 83%
13:00 +20°C° 0.5 mm 5 m/s 737 mmHg 86%
14:00 +20°C° 0.5 mm 6 m/s 738 mmHg 89%
15:00 +17°C° 0.1 mm 6 m/s 738 mmHg 89%
16:00 +16°C° 0.1 mm 6 m/s 739 mmHg 89%
17:00 +15°C° 0.1 mm 7 m/s 739 mmHg 89%
18:00 +14°C° 0.1 mm 6 m/s 740 mmHg 90%
19:00 +14°C° 0.1 mm 5 m/s 740 mmHg 90%
20:00 +14°C° 0.1 mm 5 m/s 740 mmHg 91%
21:00 +14°C° 0 mm 5 m/s 741 mmHg 91%
22:00 +14°C° 0 mm 4 m/s 741 mmHg 91%
23:00 +14°C° 0 mm 4 m/s 741 mmHg 91%

3 Agosto, Terça-feira

Tempo Temperatura Precipitação Vento Pressão Humidade
00:00 +13°C° 0 mm 4 m/s 742 mmHg 92%
01:00 +13°C° 0 mm 4 m/s 742 mmHg 92%
02:00 +12°C° 0 mm 5 m/s 742 mmHg 92%
03:00 +12°C° 0 mm 4 m/s 742 mmHg 93%
04:00 +12°C° 0 mm 4 m/s 742 mmHg 94%
05:00 +12°C° 0 mm 4 m/s 742 mmHg 95%
06:00 +13°C° 0 mm 4 m/s 743 mmHg 89%
07:00 +14°C° 0 mm 4 m/s 743 mmHg 84%
08:00 +16°C° 0 mm 5 m/s 744 mmHg 78%
09:00 +17°C° 0 mm 5 m/s 744 mmHg 74%
10:00 +19°C° 0 mm 5 m/s 744 mmHg 69%
11:00 +20°C° 0 mm 5 m/s 744 mmHg 64%
12:00 +20°C° 0.3 mm 4 m/s 744 mmHg 64%
13:00 +21°C° 0.3 mm 4 m/s 744 mmHg 64%
14:00 +21°C° 0.3 mm 4 m/s 744 mmHg 64%
15:00 +21°C° 0.4 mm 4 m/s 744 mmHg 67%
16:00 +20°C° 0.4 mm 3 m/s 744 mmHg 70%
17:00 +20°C° 0.4 mm 3 m/s 744 mmHg 73%
18:00 +19°C° 0.2 mm 3 m/s 744 mmHg 78%
19:00 +17°C° 0.2 mm 2 m/s 745 mmHg 83%
20:00 +16°C° 0.2 mm 2 m/s 745 mmHg 87%
21:00 +16°C° 0 mm 2 m/s 745 mmHg 88%
22:00 +15°C° 0 mm 2 m/s 745 mmHg 89%
23:00 +14°C° 0 mm 2 m/s 745 mmHg 91%
Mostrar mais

Necessitamos do seu Consentimento

A Meteoprog e os seus Fornecedores de Serviços podem armazenar e aceder a dados pessoais como cookies, identificadores do dispositivo ou outras tecnologias semelhantes existentes no seu dispositivo e processar estes dados para personalizar conteúdos e anúncios, assim como funcionalidades nas redes sociais e análise de tráfego.

  • Armazenar e/ou aceder a informações no seu dispositivo

    Os cookies, identificadores do dispositivo ou outras informações podem ser armazenados ou acedidos no seu dispositivo, para os fins acima indicados.

  • Anúncios e conteúdos personalizados, medição de anúncios e conteúdos, dados sobre o público-alvo e desenvolvimento de produtos

    Os anúncios e os conteúdos podem ser personalizados com base num perfil. Podem ser adicionados dados adicionais para uma maior personalização dos anúncios e dos conteúdos. A eficácia dos anúncios e dos conteúdos pode ser medida. Podem ser obtidas informações sobre o público que visualizou os anúncios e os conteúdos. Estes dados podem ser usados para desenvolver ou melhorar sistemas, softwares ou a experiência do utilizador.

Ao clicar em "Eu concordo”, permitirá o uso de cookies, identificadores do dispositivo e web beacons mencionados ou outras tecnologias semelhantes. As configurações do navegador do seu dispositivo podem ser alteradas.

Para certos fins, podem ser invocados interesses legítimos ao invés de consentimento. Pode ler mais informação sobre este assunto na nossa Política de Privacidade e Cookies.